sat.trackr.live / text

‹ back to catalog

HAWK-2C

NORAD 47502 · 2021-006CT

PAYLOAD ACTIVE UNKNOWN

§ Identity

Operator
Country
US
Launch date
2021-01-24
Launch site
AFETR
Launch vehicle
Mass (kg)
RCS (m²)

Purposes: tech_demo

External: N2YO · Heavens-Above · Gunter

§ Orbital elements

Epoch: 2026-05-25T01:37:59.769696Z

Period
93.85 min
Inclination
97.2298°
Eccentricity
0.0004984
Mean motion
15.34341960 rev/d
Perigee alt
459.5 km
Apogee alt
466.3 km
Semi-major
6,841.0 km
B*
1.7579e-4
RAAN
189.8425°
Arg perigee
285.6616°
Mean anomaly
74.4077°
Rev number
29,595

§ Raw data

HAWK-2C1 47502U 21006CT  26145.06805289  .00005769  00000+0  17579-3 0  99912 47502  97.2298 189.8425 0004984 285.6616  74.4077 15.34341960295958

JSON: /api/v1/satellites/47502 · /tle

For live sub-satellite position, see the globe view (requires WebGL).

§ Visibility from observer

Set your observer location to see the next 7 days of passes ≥ 10°. The values pass through the URL so the page stays shareable.

No JS? Fill the form by hand. The geolocation button needs JavaScript.